KC9DK Weather Reports


time (UTC)temp
C
wind
direction
speed
KPH
gust
KPH
rain 1hr
cm
rain 24hr
cm
rain mn
cm
humidity
%
barometer
mb
20260504081604 15 269 3.2 3.2 0.00 0.00 0.00 60 1012.7
20260504081100 15 3 9.7 12.9 0.00 0.00 0.00 58 1012.5
20260504080557 15 203 1.6 1.6 0.00 0.00 0.00 58 1011.1
20260504050410 15 201 3.2 3.2 0.00 0.00 0.00 54 1012.0
20260504045907 15 198 3.2 3.2 0.00 0.00 0.00 55 1012.1
20260504045402 15 246 1.6 3.2 0.00 0.00 0.00 55 1012.0
20260504044859 15 187 3.2 3.2 0.00 0.00 0.00 55 1012.2
20260504044356 15 182 0.0 0.0 0.00 0.00 0.00 56 1012.4
20260504043854 15 171 0.0 1.6 0.00 0.00 0.00 55 1012.4
20260504043350 15 189 0.0 1.6 0.00 0.00 0.00 55 1012.4
20260504042848 15 203 4.8 4.8 0.00 0.00 0.00 54 1012.4
20260504042344 15 284 3.2 3.2 0.00 0.00 0.00 54 1012.7
20260504041840 15 189 0.0 0.0 0.00 0.00 0.00 54 1012.6
20260504041337 15 164 0.0 0.0 0.00 0.00 0.00 53 1012.3
20260504040833 15 231 1.6 1.6 0.00 0.00 0.00 53 1012.5
20260504040331 15 134 1.6 1.6 0.00 0.00 0.00 54 1012.8
20260504035826 15 185 0.0 0.0 0.00 0.00 0.00 55 1012.8
20260504035324 15 194 3.2 4.8 0.00 0.00 0.00 53 1012.9
20260504034821 15 183 0.0 1.6 0.00 0.00 0.00 54 1012.7
20260504034319 15 187 1.6 3.2 0.00 0.00 0.00 56 1012.9
20260504033816 15 188 0.0 0.0 0.00 0.00 0.00 54 1012.7
20260504033314 15 124 1.6 3.2 0.00 0.00 0.00 54 1012.8
20260504032810 15 180 1.6 1.6 0.00 0.00 0.00 54 1012.9
20260504032307 15 186 0.0 1.6 0.00 0.00 0.00 55 1013.0
20260504031804 15 181 0.0 1.6 0.00 0.00 0.00 56 1013.0
20260504031301 15 153 0.0 0.0 0.00 0.00 0.00 54 1013.0
20260504030757 15 167 1.6 1.6 0.00 0.00 0.00 53 1013.3
20260504030254 15 154 1.6 1.6 0.00 0.00 0.00 53 1013.3
20260504025750 15 179 1.6 3.2 0.00 0.00 0.00 54 1013.3
20260504025248 15 149 1.6 1.6 0.00 0.00 0.00 53 1013.3
20260504024744 15 180 0.0 0.0 0.00 0.00 0.00 52 1013.5
20260504024241 15 165 1.6 3.2 0.00 0.00 0.00 52 1013.6
20260504023738 15 150 3.2 3.2 0.00 0.00 0.00 51 1013.5
20260504023234 15 177 0.0 0.0 0.00 0.00 0.00 51 1013.4
20260504022730 15 178 1.6 1.6 0.00 0.00 0.00 52 1013.5
20260504022226 15 170 0.0 1.6 0.00 0.00 0.00 52 1013.3
20260504021724 15 173 0.0 0.0 0.00 0.00 0.00 51 1013.7
20260504021221 15 148 3.2 4.8 0.00 0.00 0.00 51 1013.5
20260504020718 15 176 0.0 0.0 0.00 0.00 0.00 52 1013.6
20260504020214 15 172 3.2 3.2 0.00 0.00 0.00 51 1013.3
20260504015711 15 191 0.0 0.0 0.00 0.00 0.00 51 1013.5
20260504015207 15 180 0.0 1.6 0.00 0.00 0.00 51 1013.4
20260504014703 15 159 0.0 1.6 0.00 0.00 0.00 52 1013.3
20260504014200 15 172 0.0 1.6 0.00 0.00 0.00 52 1013.3
20260504013658 15 201 0.0 0.0 0.00 0.00 0.00 50 1013.3
20260504013154 15 166 0.0 0.0 0.00 0.00 0.00 52 1013.3
20260504012651 15 168 1.6 1.6 0.00 0.00 0.00 50 1013.4
20260504012149 15 179 0.0 0.0 0.00 0.00 0.00 50 1013.5
20260504011646 16 166 0.0 0.0 0.00 0.00 0.00 50 1013.5
20260504011142 16 175 0.0 0.0 0.00 0.00 0.00 48 1013.6
20260504010638 16 160 0.0 0.0 0.00 0.00 0.00 49 1013.5
20260504010134 16 176 0.0 0.0 0.00 0.00 0.00 47 1013.8
20260504005631 16 168 0.0 0.0 0.00 0.00 0.00 47 1013.5
20260504005128 16 184 0.0 0.0 0.00 0.00 0.00 46 1013.7
20260504004626 16 196 0.0 0.0 0.00 0.00 0.00 45 1013.7
20260504004123 17 207 0.0 1.6 0.00 0.00 0.00 46 1013.8
20260504003619 17 195 0.0 1.6 0.00 0.00 0.00 47 1013.5
20260504003116 17 199 0.0 0.0 0.00 0.00 0.00 45 1013.5
20260504002613 17 188 3.2 3.2 0.00 0.00 0.00 44 1013.6
20260504002111 17 195 1.6 1.6 0.00 0.00 0.00 43 1013.3
20260504001608 17 246 1.6 3.2 0.00 0.00 0.00 43 1013.4
20260504001104 17 237 1.6 3.2 0.00 0.00 0.00 42 1013.3
20260504000601 17 197 0.0 0.0 0.00 0.00 0.00 42 1013.1
20260504000059 18 243 8.0 11.3 0.00 0.00 0.00 41 1013.2
20260503235557 18 214 0.0 1.6 0.00 0.00 0.00 43 1012.8
20260503235053 18 242 3.2 4.8 0.00 0.00 0.00 41 1012.9
20260503234551 18 72 4.8 4.8 0.00 0.00 0.00 41 1012.8
20260503234049 18 176 3.2 3.2 0.00 0.00 0.00 40 1012.8
20260503233545 18 191 0.0 1.6 0.00 0.00 0.00 41 1013.1
20260503233041 18 205 1.6 1.6 0.00 0.00 0.00 40 1013.2
20260503232539 18 262 4.8 8.0 0.00 0.00 0.00 42 1013.3
20260503232036 18 178 1.6 3.2 0.00 0.00 0.00 43 1013.2
20260503231534 18 290 8.0 9.7 0.00 0.00 0.00 40 1013.1
20260503231030 18 253 4.8 4.8 0.00 0.00 0.00 41 1013.2
20260503230527 18 201 6.4 11.3 0.00 0.00 0.00 39 1013.3
20260503230024 18 213 1.6 3.2 0.00 0.00 0.00 41 1013.4
20260503225521 18 228 6.4 9.7 0.00 0.00 0.00 41 1013.4
20260503225016 18 252 8.0 12.9 0.00 0.00 0.00 40 1013.3
20260503224514 18 266 3.2 4.8 0.00 0.00 0.00 41 1013.4
20260503224012 18 191 1.6 1.6 0.00 0.00 0.00 41 1013.5
20260503223509 18 219 1.6 3.2 0.00 0.00 0.00 42 1013.6
20260503223005 18 168 3.2 3.2 0.00 0.00 0.00 40 1013.7
20260503222503 18 186 3.2 3.2 0.00 0.00 0.00 44 1013.9
20260503222001 18 311 4.8 8.0 0.00 0.00 0.00 40 1014.1
20260503221459 18 142 3.2 4.8 0.00 0.00 0.00 40 1014.1
20260503220956 18 283 3.2 3.2 0.00 0.00 0.00 40 1014.1
20260503220452 18 241 3.2 3.2 0.00 0.00 0.00 39 1014.3
20260503215949 18 197 1.6 1.6 0.00 0.00 0.00 41 1014.3
20260503215446 18 294 3.2 3.2 0.00 0.00 0.00 39 1014.3
20260503214943 18 216 1.6 1.6 0.00 0.00 0.00 42 1014.4
20260503214441 18 237 4.8 9.7 0.00 0.00 0.00 40 1014.3
20260503213938 18 258 1.6 1.6 0.00 0.00 0.00 42 1014.4
20260503213437 18 169 4.8 8.0 0.00 0.00 0.00 40 1014.7
20260503212932 18 17 8.0 11.3 0.00 0.00 0.00 41 1014.8
20260503212430 18 194 3.2 4.8 0.00 0.00 0.00 44 1015.1
20260503211927 18 142 1.6 3.2 0.00 0.00 0.00 41 1014.9
20260503211424 18 180 3.2 3.2 0.00 0.00 0.00 41 1015.2
20260503210919 18 254 8.0 11.3 0.00 0.00 0.00 41 1015.3
20260503210416 18 222 4.8 4.8 0.00 0.00 0.00 42 1015.0
20260503205911 18 240 4.8 8.0 0.00 0.00 0.00 43 1015.1
20260503205409 18 250 4.8 9.7 0.00 0.00 0.00 42 1015.6
20260503204904 18 287 4.8 4.8 0.00 0.00 0.00 42 1015.6
20260503204402 18 154 3.2 4.8 0.00 0.00 0.00 45 1015.8
20260503203859 18 233 3.2 3.2 0.00 0.00 0.00 43 1015.6
20260503203356 18 244 4.8 8.0 0.00 0.00 0.00 42 1016.0
20260503202853 18 265 4.8 4.8 0.00 0.00 0.00 40 1016.0
20260503202351 18 218 1.6 1.6 0.00 0.00 0.00 44 1016.2
20260503201849 19 154 11.3 16.1 0.00 0.00 0.00 40 1016.5
20260503201346 19 254 1.6 1.6 0.00 0.00 0.00 43 1016.5
20260503200844 20 299 1.6 4.8 0.00 0.00 0.00 41 1016.5
20260503200339 20 175 4.8 8.0 0.00 0.00 0.00 39 1017.1
20260503195837 19 265 3.2 3.2 0.00 0.00 0.00 42 1016.9
20260503195333 20 273 3.2 4.8 0.00 0.00 0.00 39 1017.1
20260503194830 20 184 1.6 1.6 0.00 0.00 0.00 41 1017.0
20260503194326 20 328 9.7 11.3 0.00 0.00 0.00 38 1017.5
20260503193823 20 232 6.4 8.0 0.00 0.00 0.00 39 1017.4
20260503193319 19 240 3.2 4.8 0.00 0.00 0.00 39 1017.4
20260503192815 19 298 1.6 3.2 0.00 0.00 0.00 40 1017.4
20260503192310 20 254 4.8 4.8 0.00 0.00 0.00 39 1017.4
20260503191806 19 296 4.8 8.0 0.00 0.00 0.00 41 1017.9
20260503191303 20 213 6.4 12.9 0.00 0.00 0.00 36 1017.6
20260503190800 20 263 8.0 9.7 0.00 0.00 0.00 37 1017.9
20260503190257 20 197 1.6 1.6 0.00 0.00 0.00 40 1017.9
20260503185755 19 276 3.2 4.8 0.00 0.00 0.00 40 1018.1
20260503185250 20 289 8.0 11.3 0.00 0.00 0.00 37 1018.3
20260503184750 20 228 1.6 3.2 0.00 0.00 0.00 44 1018.1
20260503184247 20 186 0.0 0.0 0.00 0.00 0.00 42 1018.4
20260503183743 18 210 1.6 3.2 0.00 0.00 0.00 53 1018.6
20260503183240 19 284 6.4 9.7 0.00 0.00 0.00 38 1018.7
20260503182738 19 200 3.2 4.8 0.00 0.00 0.00 40 1019.0
20260503182237 19 190 1.6 1.6 0.00 0.00 0.00 39 1019.1
20260503181733 19 198 6.4 9.7 0.00 0.00 0.00 38 1019.2
20260503181230 18 181 1.6 1.6 0.00 0.00 0.00 47 1019.1
20260503180726 18 167 3.2 3.2 0.00 0.00 0.00 41 1019.2
20260503180225 18 299 8.0 12.9 0.00 0.00 0.00 43 1019.2
20260503175721 18 290 3.2 3.2 0.00 0.00 0.00 41 1019.7
20260503175219 18 214 1.6 3.2 0.00 0.00 0.00 47 1019.5
20260503174715 18 281 1.6 1.6 0.00 0.00 0.00 43 1019.8
20260503174213 19 321 6.4 8.0 0.00 0.00 0.00 42 1019.7
20260503173708 18 305 4.8 8.0 0.00 0.00 0.00 43 1020.0
20260503173204 17 261 4.8 4.8 0.00 0.00 0.00 44 1020.0
20260503172701 18 335 6.4 9.7 0.00 0.00 0.00 43 1020.0
20260503172158 18 260 3.2 3.2 0.00 0.00 0.00 43 1020.1
20260503171654 18 203 3.2 3.2 0.00 0.00 0.00 46 1020.2
20260503171152 17 192 4.8 4.8 0.00 0.00 0.00 47 1020.4
20260503170649 18 210 3.2 4.8 0.00 0.00 0.00 45 1020.4
20260503170146 18 292 6.4 8.0 0.00 0.00 0.00 44 1020.2
20260503160107 16 316 4.8 8.0 0.00 0.00 0.00 46 1020.7
20260503150537 16 256 1.6 3.2 0.00 0.00 0.00 54 1021.0
20260503130927 11 212 4.8 8.0 0.00 0.00 0.00 66 1021.5
20260503130425 12 175 1.6 1.6 0.00 0.00 0.00 68 1021.4
20260503110823 4 174 0.0 0.0 0.00 0.00 0.00 95 1020.9
20260503110320 4 195 0.0 0.0 0.00 0.00 0.00 95 1020.9
20260503100246 3 178 0.0 0.0 0.00 0.00 0.00 91 1020.4
20260503090206 3 189 0.0 0.0 0.00 0.00 0.00 91 1020.6